,,Stat6,,Stat2,,Stat8,,Stat9,,Stat10,,Wind1,,Wind1,
time,status,PA1M_AVG,status,PR1M_SUM,status,RH1M_AVG,status,SR1M_AVG,status,TA1M_AVG,status,W1dAve1m,status,W1sAve1m,
2006-05-10, 00:00:00,VALID,918.073,VALID,0,VALID,97.967,VALID,-0.271693,VALID,21.097,VALID,24,VALID,0.140816,
2006-05-10, 00:01:00,VALID,918.073,VALID,0,VALID,97.9962,VALID,-0.271693,VALID,21.6577,VALID,22,VALID,0.285657,
2006-05-10, 00:02:00,VALID,918.073,VALID,0,VALID,97.883,VALID,-0.237732,VALID,20.1444,VALID,18,VALID,0.334794,
2006-05-10, 00:03:00,VALID,918.043,VALID,0,VALID,97.9136,VALID,-0.305655,VALID,21.6066,VALID,17,VALID,0.0352564,
2006-05-10, 00:04:00,VALID,918.016,VALID,0,VALID,97.7457,VALID,-0.271693,VALID,20.8794,VALID,17,VALID,0.0628551,
2006-05-10, 00:05:00,VALID,917.985,VALID,0,VALID,97.7063,VALID,-0.220751,VALID,20.293,VALID,16,VALID,0.0970486,
2006-05-10, 00:06:00,VALID,917.963,VALID,0,VALID,97.6618,VALID,-0.271693,VALID,20.6579,VALID,16,VALID,0.00319602,
2006-05-10, 00:07:00,VALID,917.927,VALID,0,VALID,97.6249,VALID,-0.271693,VALID,23.3478,VALID,66,VALID,0.269903,
2006-05-10, 00:08:00,VALID,917.909,VALID,0,VALID,97.6134,VALID,-0.305655,VALID,20.2324,VALID,173,VALID,0.304869,
2006-05-10, 00:09:00,VALID,917.893,VALID,0,VALID,97.6465,VALID,-0.254712,VALID,21.0446,VALID,173,VALID,0.137251,
2006-05-10, 00:10:00,VALID,917.892,VALID,0,VALID,97.7037,VALID,-0.20377,VALID,21.0496,VALID,173,VALID,0.078683,
2006-05-10, 00:11:00,VALID,917.884,VALID,0,VALID,97.8055,VALID,-0.237732,VALID,20.1916,VALID,173,VALID,0.0403343,
2006-05-10, 00:12:00,VALID,917.87,VALID,0,VALID,97.9314,VALID,-0.305655,VALID,21.2981,VALID,173,VALID,0.0801711,
2006-05-10, 00:13:00,VALID,917.854,VALID,0,VALID,98.0267,VALID,-0.220751,VALID,20.8836,VALID,173,VALID,0.0137195,
2006-05-10, 00:14:00,VALID,917.823,VALID,0,VALID,97.9975,VALID,-0.237732,VALID,20.0185,VALID,173,VALID,0.0958807,
2006-05-10, 00:15:00,VALID,917.795,VALID,0,VALID,97.9797,VALID,-0.237732,VALID,20.4007,VALID,173,VALID,0.294017,
2006-05-10, 00:16:00,VALID,917.777,VALID,0,VALID,98.0522,VALID,-0.135847,VALID,20.1011,VALID,173,VALID,0.124628,
2006-05-10, 00:17:00,VALID,917.763,VALID,0,VALID,98.0776,VALID,-0.186789,VALID,20.3236,VALID,173,VALID,0.0918403,
2006-05-10, 00:18:00,VALID,917.758,VALID,0,VALID,98.2302,VALID,-0.152827,VALID,20.0799,VALID,173,VALID,0.0599564,
2006-05-10, 00:19:00,VALID,917.763,VALID,0,VALID,97.9835,VALID,-0.152827,VALID,20.5036,VALID,173,VALID,0,
2006-05-10, 00:20:00,VALID,917.767,VALID,0,VALID,97.8245,VALID,-0.237732,VALID,20.2267,VALID,173,VALID,0.307422,
2006-05-10, 00:21:00,VALID,917.784,VALID,0,VALID,97.9314,VALID,-0.237732,VALID,20.3907,VALID,173,VALID,0.308685,
2006-05-10, 00:22:00,VALID,917.795,VALID,0,VALID,98.3421,VALID,-0.220751,VALID,20.1147,VALID,173,VALID,0.0619792,
2006-05-10, 00:23:00,VALID,917.783,VALID,0,VALID,98.5137,VALID,-0.237732,VALID,20.5202,VALID,173,VALID,0.0116279,
2006-05-10, 00:24:00,VALID,917.766,VALID,0,VALID,98.5405,VALID,-0.220751,VALID,20.5601,VALID,173,VALID,0.016369,
2006-05-10, 00:25:00,VALID,917.74,VALID,0,VALID,98.6447,VALID,-0.220751,VALID,21.1707,VALID,173,VALID,0,
2006-05-10, 00:26:00,VALID,917.73,VALID,0,VALID,98.646,VALID,-0.288674,VALID,20.7901,VALID,173,VALID,0.000571646,
2006-05-10, 00:27:00,VALID,917.725,VALID,0,VALID,98.6587,VALID,-0.237732,VALID,20.0536,VALID,173,VALID,0.359375,
2006-05-10, 00:28:00,VALID,917.712,VALID,0,VALID,98.8164,VALID,-0.254712,VALID,19.5248,VALID,173,VALID,0.406605,
2006-05-10, 00:29:00,VALID,917.723,VALID,0,VALID,98.9741,VALID,-0.271693,VALID,20.327,VALID,173,VALID,0.0290698,
2006-05-10, 00:30:00,VALID,917.727,VALID,0,VALID,99.1012,VALID,-0.288674,VALID,20.0655,VALID,173,VALID,0.234756,
2006-05-10, 00:31:00,VALID,917.731,VALID,0,VALID,99.1712,VALID,-0.254712,VALID,20.9691,VALID,173,VALID,0.0025436,
2006-05-10, 00:32:00,VALID,917.721,VALID,0,VALID,99.2233,VALID,-0.288674,VALID,21.7588,VALID,173,VALID,0,
2006-05-10, 00:33:00,VALID,917.708,VALID,0,VALID,99.1826,VALID,-0.305655,VALID,19.4784,VALID,173,VALID,0,
2006-05-10, 00:34:00,VALID,917.699,VALID,0,VALID,99.2068,VALID,-0.288674,VALID,19.8997,VALID,173,VALID,0,
2006-05-10, 00:35:00,VALID,917.674,VALID,0,VALID,99.1941,VALID,-0.288674,VALID,21.7982,VALID,173,VALID,0,
2006-05-10, 00:36:00,VALID,917.64,VALID,0,VALID,99.147,VALID,-0.271693,VALID,20.4548,VALID,173,VALID,0,
2006-05-10, 00:37:00,VALID,917.61,VALID,0,VALID,99.1572,VALID,-0.135847,VALID,20.8771,VALID,173,VALID,0,
2006-05-10, 00:38:00,VALID,917.579,VALID,0,VALID,99.1724,VALID,-0.152827,VALID,20.9385,VALID,173,VALID,0.0905107,
2006-05-10, 00:39:00,VALID,917.548,VALID,0,VALID,99.0059,VALID,-0.271693,VALID,20.3316,VALID,169,VALID,0.360263,
2006-05-10, 00:40:00,VALID,917.514,VALID,0,VALID,98.9372,VALID,-0.254712,VALID,21.3194,VALID,23,VALID,0.474432,
2006-05-10, 00:41:00,VALID,917.481,VALID,0,VALID,98.8825,VALID,-0.186789,VALID,19.7108,VALID,23,VALID,0.635742,
2006-05-10, 00:42:00,VALID,917.446,VALID,0,VALID,98.7426,VALID,-0.237732,VALID,19.9153,VALID,23,VALID,0.748001,
2006-05-10, 00:43:00,VALID,917.406,VALID,0,VALID,98.7732,VALID,-0.220751,VALID,21.1449,VALID,22,VALID,0.937695,
2006-05-10, 00:44:00,VALID,917.357,VALID,0,VALID,98.8151,VALID,-0.186789,VALID,21.2156,VALID,20,VALID,0.932594,
2006-05-10, 00:45:00,VALID,917.327,VALID,0,VALID,98.8863,VALID,-0.220751,VALID,23.7638,VALID,12,VALID,0.933333,
2006-05-10, 00:46:00,VALID,917.308,VALID,0,VALID,98.866,VALID,-0.237732,VALID,19.5999,VALID,9,VALID,1.02195,
2006-05-10, 00:47:00,VALID,917.287,VALID,0,VALID,98.8253,VALID,-0.20377,VALID,19.0261,VALID,10,VALID,0.810156,
2006-05-10, 00:48:00,VALID,917.282,VALID,0,VALID,98.8342,VALID,-0.220751,VALID,19.3864,VALID,11,VALID,0.836124,
2006-05-10, 00:49:00,VALID,917.277,VALID,0,VALID,98.8634,VALID,-0.237732,VALID,20.5891,VALID,16,VALID,1.00621,
2006-05-10, 00:50:00,VALID,917.255,VALID,0,VALID,98.7681,VALID,-0.220751,VALID,19.7032,VALID,20,VALID,0.919643,
2006-05-10, 00:51:00,VALID,917.234,VALID,0,VALID,98.7096,VALID,-0.169808,VALID,21.3896,VALID,22,VALID,0.835756,
2006-05-10, 00:52:00,VALID,917.215,VALID,0,VALID,98.6511,VALID,-0.169808,VALID,20.3284,VALID,16,VALID,0.739383,
2006-05-10, 00:53:00,VALID,917.196,VALID,0,VALID,98.6231,VALID,-0.169808,VALID,20.6615,VALID,16,VALID,0.804874,
2006-05-10, 00:54:00,VALID,917.176,VALID,0,VALID,98.5939,VALID,-0.135847,VALID,21.1057,VALID,12,VALID,0.828125,
2006-05-10, 00:55:00,VALID,917.163,VALID,0,VALID,98.5913,VALID,-0.20377,VALID,21.0432,VALID,16,VALID,0.975694,
2006-05-10, 00:56:00,VALID,917.152,VALID,0,VALID,98.5799,VALID,-0.254712,VALID,20.3729,VALID,6,VALID,1.20017,
2006-05-10, 00:57:00,VALID,917.145,VALID,0,VALID,98.8139,VALID,-0.152827,VALID,19.4913,VALID,5,VALID,1.20182,
2006-05-10, 00:58:00,VALID,917.145,VALID,0,VALID,99.0059,VALID,-0.20377,VALID,19.4859,VALID,2,VALID,1.08949,
2006-05-10, 00:59:00,VALID,917.157,VALID,0,VALID,99.0745,VALID,-0.186789,VALID,20.0661,VALID,348,VALID,0.960565,
2006-05-10, 01:00:00,VALID,917.164,VALID,0,VALID,99.3034,VALID,-0.186789,VALID,19.771,VALID,352,VALID,1.15879,
2006-05-10, 01:01:00,VALID,917.161,VALID,0,VALID,99.5972,VALID,-0.20377,VALID,19.8005,VALID,15,VALID,1.40952,
2006-05-10, 01:02:00,VALID,917.167,VALID,0,VALID,99.8044,VALID,-0.186789,VALID,19.8084,VALID,354,VALID,0.972842,
2006-05-10, 01:03:00,VALID,917.166,VALID,0,VALID,99.8731,VALID,-0.186789,VALID,20.8801,VALID,15,VALID,1.03507,
2006-05-10, 01:04:00,VALID,917.153,VALID,0,VALID,99.9842,VALID,-0.237732,VALID,21.1364,VALID,11,VALID,0.530342,
2006-05-10, 01:05:00,VALID,917.156,VALID,0,VALID,100,VALID,-0.186789,VALID,19.4308,VALID,4,VALID,0.504794,
2006-05-10, 01:06:00,VALID,917.146,VALID,0,VALID,100,VALID,-0.152827,VALID,19.7372,VALID,4,VALID,0.517578,
2006-05-10, 01:07:00,VALID,917.135,VALID,0,VALID,100,VALID,-0.254712,VALID,20.0988,VALID,346,VALID,0.64974,
2006-05-10, 01:08:00,VALID,917.12,VALID,0,VALID,100,VALID,-0.20377,VALID,20.819,VALID,16,VALID,0.448038,
2006-05-10, 01:09:00,VALID,917.108,VALID,0,VALID,100,VALID,-0.254712,VALID,19.6338,VALID,16,VALID,0.4734,
2006-05-10, 01:10:00,VALID,917.088,VALID,0,VALID,100,VALID,-0.288674,VALID,20.9993,VALID,4,VALID,0.438262,
2006-05-10, 01:11:00,VALID,917.079,VALID,0,VALID,100,VALID,-0.237732,VALID,20.5761,VALID,354,VALID,0.59561,
2006-05-10, 01:12:00,VALID,917.067,VALID,0,VALID,100,VALID,-0.220751,VALID,19.0689,VALID,354,VALID,0.540777,
2006-05-10, 01:13:00,VALID,917.061,VALID,0,VALID,99.9916,VALID,-0.254712,VALID,20.9194,VALID,345,VALID,0.594308,
2006-05-10, 01:14:00,VALID,917.069,VALID,0,VALID,99.999,VALID,-0.237732,VALID,20.9832,VALID,337,VALID,0.333333,
2006-05-10, 01:15:00,VALID,917.073,VALID,0,VALID,99.9898,VALID,-0.271693,VALID,20.2878,VALID,312,VALID,0.464177,
2006-05-10, 01:16:00,VALID,917.068,VALID,0,VALID,99.9758,VALID,-0.186789,VALID,20.8425,VALID,308,VALID,0.375,
2006-05-10, 01:17:00,VALID,917.059,VALID,0,VALID,100,VALID,-0.186789,VALID,20.6476,VALID,325,VALID,0.349254,
2006-05-10, 01:18:00,VALID,917.055,VALID,0,VALID,100,VALID,-0.135847,VALID,20.5028,VALID,325,VALID,0.176525,
2006-05-10, 01:19:00,VALID,917.039,VALID,0,VALID,100,VALID,-0.135847,VALID,21.4159,VALID,316,VALID,0.433117,
2006-05-10, 01:20:00,VALID,917.047,VALID,0,VALID,100,VALID,-0.186789,VALID,22.0329,VALID,302,VALID,0.22561,
2006-05-10, 01:21:00,VALID,917.036,VALID,0,VALID,99.9954,VALID,-0.20377,VALID,21.1853,VALID,349,VALID,0.351563,
2006-05-10, 01:22:00,VALID,917.029,VALID,0,VALID,99.9967,VALID,-0.254712,VALID,20.2763,VALID,349,VALID,0.278646,
2006-05-10, 01:23:00,VALID,917.015,VALID,0,VALID,99.9939,VALID,-0.20377,VALID,21.0931,VALID,349,VALID,0.380269,
2006-05-10, 01:24:00,VALID,916.98,VALID,0,VALID,99.91,VALID,-0.271693,VALID,20.5027,VALID,349,VALID,0.460211,
2006-05-10, 01:25:00,VALID,916.963,VALID,0,VALID,99.8744,VALID,-0.271693,VALID,20.4748,VALID,349,VALID,0.538132,
2006-05-10, 01:26:00,VALID,916.934,VALID,0,VALID,99.8744,VALID,-0.20377,VALID,19.7722,VALID,349,VALID,0.327939,
2006-05-10, 01:27:00,VALID,916.911,VALID,0,VALID,99.7485,VALID,-0.20377,VALID,19.8708,VALID,349,VALID,0.167081,
2006-05-10, 01:28:00,VALID,916.88,VALID,0,VALID,99.7078,VALID,-0.20377,VALID,19.614,VALID,349,VALID,0.308503,
2006-05-10, 01:29:00,VALID,916.858,VALID,0,VALID,99.6747,VALID,-0.20377,VALID,18.809,VALID,350,VALID,0.377668,
2006-05-10, 01:30:00,VALID,916.844,VALID,0,VALID,99.7167,VALID,-0.20377,VALID,18.9561,VALID,350,VALID,0.0628811,
2006-05-10, 01:31:00,VALID,916.843,VALID,0,VALID,99.7141,VALID,-0.220751,VALID,20.2239,VALID,350,VALID,0.160243,
2006-05-10, 01:32:00,VALID,916.831,VALID,0,VALID,99.7828,VALID,-0.20377,VALID,20.2135,VALID,350,VALID,0.149479,
2006-05-10, 01:33:00,VALID,916.828,VALID,0,VALID,99.7599,VALID,-0.20377,VALID,20.9282,VALID,350,VALID,0.342416,
2006-05-10, 01:34:00,VALID,916.828,VALID,0,VALID,99.6696,VALID,-0.20377,VALID,20.6922,VALID,325,VALID,0.329985,
2006-05-10, 01:35:00,VALID,916.832,VALID,0,VALID,99.5514,VALID,-0.152827,VALID,20.0064,VALID,316,VALID,0.553961,
2006-05-10, 01:36:00,VALID,916.819,VALID,0,VALID,99.4827,VALID,-0.186789,VALID,20.3438,VALID,309,VALID,0.588956,
2006-05-10, 01:37:00,VALID,916.81,VALID,0,VALID,99.5768,VALID,-0.220751,VALID,20.3297,VALID,309,VALID,0.32867,
2006-05-10, 01:38:00,VALID,916.792,VALID,0,VALID,99.6366,VALID,-0.271693,VALID,20.9428,VALID,309,VALID,0.15696,
2006-05-10, 01:39:00,VALID,916.783,VALID,0,VALID,99.6556,VALID,-0.135847,VALID,21.1541,VALID,290,VALID,0.501999,
2006-05-10, 01:40:00,VALID,916.763,VALID,0,VALID,99.5107,VALID,-0.20377,VALID,20.2905,VALID,285,VALID,0.428961,
2006-05-10, 01:41:00,VALID,916.747,VALID,0,VALID,99.7065,VALID,-0.152827,VALID,19.6889,VALID,285,VALID,0.247743,
2006-05-10, 01:42:00,VALID,916.728,VALID,0,VALID,99.8515,VALID,-0.118866,VALID,20.5576,VALID,282,VALID,0.370916,
2006-05-10, 01:43:00,VALID,916.706,VALID,0,VALID,99.9036,VALID,-0.135847,VALID,21.4859,VALID,282,VALID,0.37035,
2006-05-10, 01:44:00,VALID,916.677,VALID,0,VALID,99.9916,VALID,-0.305655,VALID,19.8669,VALID,282,VALID,0.352108,
2006-05-10, 01:45:00,VALID,916.654,VALID,0,VALID,100,VALID,-0.288674,VALID,19.5316,VALID,282,VALID,0.395778,
2006-05-10, 01:46:00,VALID,916.625,VALID,0,VALID,100,VALID,-0.186789,VALID,20.3194,VALID,282,VALID,0.371982,
2006-05-10, 01:47:00,VALID,916.615,VALID,0,VALID,100,VALID,-0.20377,VALID,20.6549,VALID,282,VALID,0.227072,
2006-05-10, 01:48:00,VALID,916.582,VALID,0,VALID,100,VALID,-0.20377,VALID,21.427,VALID,282,VALID,0.00223214,
2006-05-10, 01:49:00,VALID,916.572,VALID,0,VALID,100,VALID,-0.20377,VALID,20.315,VALID,282,VALID,0,
2006-05-10, 01:50:00,VALID,916.552,VALID,0,VALID,100,VALID,-0.20377,VALID,20.3433,VALID,282,VALID,0,
2006-05-10, 01:51:00,VALID,916.531,VALID,0,VALID,100,VALID,-0.20377,VALID,19.7648,VALID,282,VALID,0,
2006-05-10, 01:52:00,VALID,916.511,VALID,0,VALID,99.9802,VALID,-0.20377,VALID,20.2993,VALID,282,VALID,0.00892857,
2006-05-10, 01:53:00,VALID,916.48,VALID,0,VALID,99.7434,VALID,-0.20377,VALID,19.7002,VALID,217,VALID,0.427326,
2006-05-10, 01:54:00,VALID,916.453,VALID,0,VALID,99.4306,VALID,-0.20377,VALID,20.2049,VALID,188,VALID,0.606291,
2006-05-10, 01:55:00,VALID,916.436,VALID,0,VALID,99.1915,VALID,-0.186789,VALID,19.67,VALID,178,VALID,0.766797,
2006-05-10, 01:56:00,VALID,916.43,VALID,0,VALID,99.2335,VALID,-0.20377,VALID,19.4685,VALID,166,VALID,0.731027,
2006-05-10, 01:57:00,VALID,916.429,VALID,0,VALID,99.3873,VALID,-0.20377,VALID,19.6684,VALID,166,VALID,0.470424,
2006-05-10, 01:58:00,VALID,916.427,VALID,0,VALID,99.5463,VALID,-0.20377,VALID,20.4618,VALID,178,VALID,0.500533,
2006-05-10, 01:59:00,VALID,916.428,VALID,0,VALID,99.6137,VALID,-0.20377,VALID,19.2809,VALID,170,VALID,0.349432,
2006-05-10, 02:00:00,VALID,916.419,VALID,0,VALID,99.6709,VALID,-0.20377,VALID,20.899,VALID,174,VALID,0.548921,
2006-05-10, 02:01:00,VALID,916.422,VALID,0,VALID,99.8413,VALID,-0.220751,VALID,19.8408,VALID,184,VALID,0.734961,
2006-05-10, 02:02:00,VALID,916.42,VALID,0,VALID,99.9583,VALID,-0.20377,VALID,21.3511,VALID,188,VALID,0.528161,
2006-05-10, 02:03:00,VALID,916.399,VALID,0,VALID,99.9074,VALID,-0.220751,VALID,19.7073,VALID,188,VALID,0.26726,
2006-05-10, 02:04:00,VALID,916.391,VALID,0,VALID,99.9682,VALID,-0.220751,VALID,19.3633,VALID,188,VALID,0.176258,
2006-05-10, 02:05:00,VALID,916.374,VALID,0,VALID,100,VALID,-0.220751,VALID,18.8235,VALID,188,VALID,0.00457317,
2006-05-10, 02:06:00,VALID,916.373,VALID,0,VALID,99.9524,VALID,-0.220751,VALID,19.6736,VALID,176,VALID,0.369913,
2006-05-10, 02:07:00,VALID,916.36,VALID,0,VALID,99.8184,VALID,-0.118866,VALID,19.7981,VALID,173,VALID,0.142882,
2006-05-10, 02:08:00,VALID,916.36,VALID,0,VALID,99.9451,VALID,-0.118866,VALID,19.9931,VALID,173,VALID,0.176042,
2006-05-10, 02:09:00,VALID,916.35,VALID,0,VALID,100,VALID,-0.135847,VALID,19.7142,VALID,173,VALID,0.170759,
2006-05-10, 02:10:00,VALID,916.337,VALID,0,VALID,100,VALID,-0.169808,VALID,20.4085,VALID,173,VALID,0.0120739,
2006-05-10, 02:11:00,VALID,916.332,VALID,0,VALID,100,VALID,-0.20377,VALID,19.1248,VALID,173,VALID,0.0351563,
2006-05-10, 02:12:00,VALID,916.328,VALID,0,VALID,100,VALID,-0.186789,VALID,19.6127,VALID,173,VALID,0,
2006-05-10, 02:13:00,VALID,916.328,VALID,0,VALID,100,VALID,-0.186789,VALID,19.9927,VALID,191,VALID,0.376776,
2006-05-10, 02:14:00,VALID,916.319,VALID,0,VALID,100,VALID,-0.186789,VALID,19.5874,VALID,248,VALID,0.838778,
2006-05-10, 02:15:00,VALID,916.308,VALID,0,VALID,100,VALID,-0.220751,VALID,19.2521,VALID,244,VALID,0.488281,
2006-05-10, 02:16:00,VALID,916.288,VALID,0,VALID,100,VALID,-0.288674,VALID,20.2757,VALID,239,VALID,0.284784,
2006-05-10, 02:17:00,VALID,916.265,VALID,0,VALID,100,VALID,-0.169808,VALID,19.6432,VALID,261,VALID,0.426829,
2006-05-10, 02:18:00,VALID,916.233,VALID,0,VALID,100,VALID,-0.186789,VALID,19.6511,VALID,278,VALID,0.243716,
2006-05-10, 02:19:00,VALID,916.213,VALID,0,VALID,100,VALID,-0.186789,VALID,20.7475,VALID,266,VALID,0.294643,
2006-05-10, 02:20:00,VALID,916.193,VALID,0,VALID,100,VALID,-0.186789,VALID,19.7375,VALID,253,VALID,0.225497,
2006-05-10, 02:21:00,VALID,916.175,VALID,0,VALID,100,VALID,-0.20377,VALID,20.2385,VALID,232,VALID,0.0128906,
2006-05-10, 02:22:00,VALID,916.168,VALID,0,VALID,100,VALID,-0.169808,VALID,19.8154,VALID,235,VALID,0.0699314,
2006-05-10, 02:23:00,VALID,916.161,VALID,0,VALID,100,VALID,-0.220751,VALID,19.2959,VALID,260,VALID,0.363867,
2006-05-10, 02:24:00,VALID,916.159,VALID,0,VALID,100,VALID,-0.220751,VALID,19.8557,VALID,328,VALID,0.50686,
2006-05-10, 02:25:00,VALID,916.153,VALID,0,VALID,100,VALID,-0.237732,VALID,19.7596,VALID,1,VALID,0.627604,
2006-05-10, 02:26:00,VALID,916.151,VALID,0,VALID,100,VALID,-0.237732,VALID,18.7128,VALID,5,VALID,0.574751,
2006-05-10, 02:27:00,VALID,916.157,VALID,0,VALID,100,VALID,-0.152827,VALID,19.4636,VALID,5,VALID,0.286519,
2006-05-10, 02:28:00,VALID,916.144,VALID,0,VALID,100,VALID,-0.135847,VALID,20.5063,VALID,5,VALID,0.0695685,
2006-05-10, 02:29:00,VALID,916.133,VALID,0,VALID,100,VALID,-0.118866,VALID,19.4171,VALID,5,VALID,0,
2006-05-10, 02:30:00,VALID,916.134,VALID,0,VALID,100,VALID,-0.135847,VALID,18.3531,VALID,5,VALID,0,
2006-05-10, 02:31:00,VALID,916.111,VALID,0,VALID,100,VALID,-0.237732,VALID,20.2075,VALID,5,VALID,0,
2006-05-10, 02:32:00,VALID,916.096,VALID,0,VALID,100,VALID,-0.237732,VALID,19.2988,VALID,5,VALID,0.0199855,
2006-05-10, 02:33:00,VALID,916.083,VALID,0,VALID,100,VALID,-0.271693,VALID,20.8717,VALID,5,VALID,0.0379972,
2006-05-10, 02:34:00,VALID,916.048,VALID,0,VALID,100,VALID,-0.169808,VALID,19.5091,VALID,5,VALID,0,
2006-05-10, 02:35:00,VALID,916.039,VALID,0,VALID,100,VALID,-0.237732,VALID,19.8278,VALID,5,VALID,0,
2006-05-10, 02:36:00,VALID,916.034,VALID,0,VALID,100,VALID,-0.237732,VALID,20.3053,VALID,5,VALID,0,
2006-05-10, 02:37:00,VALID,916.03,VALID,0,VALID,100,VALID,-0.254712,VALID,21.216,VALID,5,VALID,0,
2006-05-10, 02:38:00,VALID,916.023,VALID,0,VALID,100,VALID,-0.20377,VALID,19.9116,VALID,5,VALID,0,
2006-05-10, 02:39:00,VALID,916.033,VALID,0,VALID,100,VALID,-0.20377,VALID,20.1799,VALID,5,VALID,0,
2006-05-10, 02:40:00,VALID,916.028,VALID,0,VALID,100,VALID,-0.152827,VALID,20.1297,VALID,5,VALID,0,
2006-05-10, 02:41:00,VALID,916.012,VALID,0,VALID,100,VALID,-0.271693,VALID,18.9559,VALID,5,VALID,0,
2006-05-10, 02:42:00,VALID,915.993,VALID,0,VALID,100,VALID,-0.220751,VALID,18.4468,VALID,5,VALID,0.0673611,
2006-05-10, 02:43:00,VALID,915.974,VALID,0,VALID,100,VALID,-0.254712,VALID,18.2721,VALID,5,VALID,0.233842,
2006-05-10, 02:44:00,VALID,915.937,VALID,0,VALID,100,VALID,-0.271693,VALID,20.5111,VALID,5,VALID,0.291109,
2006-05-10, 02:45:00,VALID,915.925,VALID,0,VALID,100,VALID,-0.237732,VALID,18.7078,VALID,5,VALID,0.367188,
2006-05-10, 02:46:00,VALID,915.883,VALID,0,VALID,100,VALID,-0.169808,VALID,19.8371,VALID,12,VALID,0.265625,
2006-05-10, 02:47:00,VALID,915.866,VALID,0,VALID,100,VALID,-0.20377,VALID,19.2621,VALID,71,VALID,0.63737,
2006-05-10, 02:48:00,VALID,915.851,VALID,0,VALID,100,VALID,-0.169808,VALID,19.8321,VALID,89,VALID,0.772879,
2006-05-10, 02:49:00,VALID,915.847,VALID,0,VALID,100,VALID,-0.20377,VALID,19.9277,VALID,111,VALID,1.00877,
2006-05-10, 02:50:00,VALID,915.843,VALID,0,VALID,100,VALID,-0.20377,VALID,18.9367,VALID,124,VALID,1.21328,
2006-05-10, 02:51:00,VALID,915.846,VALID,0,VALID,100,VALID,-0.20377,VALID,20.1502,VALID,121,VALID,1.01635,
2006-05-10, 02:52:00,VALID,915.843,VALID,0,VALID,100,VALID,-0.186789,VALID,19.5762,VALID,127,VALID,0.967607,
2006-05-10, 02:53:00,VALID,915.838,VALID,0,VALID,100,VALID,-0.220751,VALID,18.9641,VALID,135,VALID,1.21129,
2006-05-10, 02:54:00,VALID,915.845,VALID,0,VALID,100,VALID,-0.237732,VALID,18.6949,VALID,131,VALID,1.49272,
2006-05-10, 02:55:00,VALID,915.843,VALID,0,VALID,100,VALID,-0.186789,VALID,20.5338,VALID,131,VALID,1.26432,
2006-05-10, 02:56:00,VALID,915.82,VALID,0,VALID,100,VALID,-0.186789,VALID,20.8759,VALID,118,VALID,1.25707,
2006-05-10, 02:57:00,VALID,915.801,VALID,0,VALID,100,VALID,-0.186789,VALID,20.6654,VALID,114,VALID,1.25545,
2006-05-10, 02:58:00,VALID,915.768,VALID,0,VALID,100,VALID,-0.186789,VALID,19.3778,VALID,116,VALID,1.24037,
2006-05-10, 02:59:00,VALID,915.742,VALID,0,VALID,100,VALID,-0.20377,VALID,20.5803,VALID,120,VALID,1.24219,
2006-05-10, 03:00:00,VALID,915.713,VALID,0,VALID,100,VALID,-0.152827,VALID,19.1404,VALID,119,VALID,1.00324,
2006-05-10, 03:01:00,VALID,915.693,VALID,0,VALID,100,VALID,-0.169808,VALID,20.15,VALID,113,VALID,0.824219,
2006-05-10, 03:02:00,VALID,915.674,VALID,0,VALID,100,VALID,-0.186789,VALID,19.0832,VALID,111,VALID,0.837209,
2006-05-10, 03:03:00,VALID,915.655,VALID,0,VALID,100,VALID,-0.305655,VALID,19.8685,VALID,85,VALID,0.566319,
2006-05-10, 03:04:00,VALID,915.642,VALID,0,VALID,100,VALID,-0.288674,VALID,19.9923,VALID,89,VALID,0.625558,
2006-05-10, 03:05:00,VALID,915.616,VALID,0,VALID,100,VALID,-0.254712,VALID,20.5151,VALID,88,VALID,0.655887,
2006-05-10, 03:06:00,VALID,915.609,VALID,0,VALID,100,VALID,-0.271693,VALID,20.2395,VALID,86,VALID,0.798549,
2006-05-10, 03:07:00,VALID,915.582,VALID,0,VALID,100,VALID,-0.271693,VALID,19.1357,VALID,85,VALID,0.789063,
2006-05-10, 03:08:00,VALID,915.581,VALID,0,VALID,100,VALID,-0.254712,VALID,20.2632,VALID,80,VALID,0.945494,
2006-05-10, 03:09:00,VALID,915.593,VALID,0,VALID,100,VALID,-0.20377,VALID,19.6725,VALID,60,VALID,0.917969,
2006-05-10, 03:10:00,VALID,915.61,VALID,0,VALID,100,VALID,-0.152827,VALID,20.0998,VALID,52,VALID,1.01419,
2006-05-10, 03:11:00,VALID,915.627,VALID,0,VALID,100,VALID,-0.186789,VALID,18.9804,VALID,42,VALID,1.09609,
2006-05-10, 03:12:00,VALID,915.653,VALID,0,VALID,100,VALID,-0.186789,VALID,19.9872,VALID,61,VALID,1.07412,
2006-05-10, 03:13:00,VALID,915.667,VALID,0,VALID,100,VALID,-0.186789,VALID,19.3193,VALID,64,VALID,1.0122,
2006-05-10, 03:14:00,VALID,915.679,VALID,0,VALID,100,VALID,-0.186789,VALID,20.4267,VALID,56,VALID,0.845084,
2006-05-10, 03:15:00,VALID,915.679,VALID,0,VALID,100,VALID,-0.288674,VALID,20.4458,VALID,54,VALID,0.489329,
2006-05-10, 03:16:00,VALID,915.67,VALID,0,VALID,100,VALID,-0.20377,VALID,18.6971,VALID,59,VALID,0.343178,
2006-05-10, 03:17:00,VALID,915.667,VALID,0,VALID,100,VALID,-0.152827,VALID,19.4754,VALID,59,VALID,0.0920759,
2006-05-10, 03:18:00,VALID,915.678,VALID,0,VALID,100,VALID,-0.220751,VALID,19.1169,VALID,59,VALID,0.0927973,
2006-05-10, 03:19:00,VALID,915.673,VALID,0,VALID,100,VALID,-0.237732,VALID,19.5161,VALID,59,VALID,0.174162,
2006-05-10, 03:20:00,VALID,915.695,VALID,0,VALID,100,VALID,-0.169808,VALID,19.0852,VALID,59,VALID,0.0675347,
2006-05-10, 03:21:00,VALID,915.695,VALID,0,VALID,100,VALID,-0.169808,VALID,20.2114,VALID,59,VALID,0,
2006-05-10, 03:22:00,VALID,915.716,VALID,0,VALID,100,VALID,-0.169808,VALID,20.4909,VALID,58,VALID,0.232515,
2006-05-10, 03:23:00,VALID,915.739,VALID,0,VALID,100,VALID,-0.169808,VALID,18.9634,VALID,58,VALID,0.169643,
2006-05-10, 03:24:00,VALID,915.749,VALID,0,VALID,100,VALID,-0.20377,VALID,19.5372,VALID,58,VALID,0,
2006-05-10, 03:25:00,VALID,915.755,VALID,0,VALID,100,VALID,-0.288674,VALID,19.8547,VALID,58,VALID,0,
2006-05-10, 03:26:00,VALID,915.764,VALID,0,VALID,100,VALID,-0.237732,VALID,19.8513,VALID,58,VALID,0,
2006-05-10, 03:27:00,VALID,915.77,VALID,0,VALID,100,VALID,-0.288674,VALID,19.5338,VALID,58,VALID,0.0171875,
2006-05-10, 03:28:00,VALID,915.781,VALID,0,VALID,100,VALID,-0.152827,VALID,19.9654,VALID,58,VALID,0.0192708,
2006-05-10, 03:29:00,VALID,915.778,VALID,0,VALID,100,VALID,-0.271693,VALID,19.6989,VALID,58,VALID,0,
2006-05-10, 03:30:00,VALID,915.791,VALID,0,VALID,100,VALID,-0.271693,VALID,19.5916,VALID,58,VALID,0.0581174,
2006-05-10, 03:31:00,VALID,915.803,VALID,0,VALID,100,VALID,-0.254712,VALID,18.8491,VALID,28,VALID,0.171274,
2006-05-10, 03:32:00,VALID,915.796,VALID,0,VALID,100,VALID,-0.288674,VALID,19.2285,VALID,24,VALID,0.113009,
2006-05-10, 03:33:00,VALID,915.796,VALID,0,VALID,100,VALID,-0.20377,VALID,20.0091,VALID,23,VALID,0.122142,
2006-05-10, 03:34:00,VALID,915.803,VALID,0,VALID,100,VALID,-0.20377,VALID,19.3251,VALID,307,VALID,0.43125,
2006-05-10, 03:35:00,VALID,915.807,VALID,0,VALID,100,VALID,-0.220751,VALID,19.0448,VALID,305,VALID,0.146532,
2006-05-10, 03:36:00,VALID,915.812,VALID,0,VALID,100,VALID,-0.254712,VALID,19.8738,VALID,305,VALID,0.0188953,
2006-05-10, 03:37:00,VALID,915.81,VALID,0,VALID,100,VALID,-0.288674,VALID,19.1609,VALID,305,VALID,0.19308,